This is the latest recevied weather packets stored in our database for station/object N3TJJ-11. If no packets are shown the sender has not sent any weather packets the latest 10 day(s).
| Time | Temp. | Humidity | Pressure | Rain* | Wind** | Luminosity | Snow |
|---|---|---|---|---|---|---|---|
| 1777029848 | 12.78° C | 55% | 1007.8 hPa | 0 mm | - | - | - |
| 1777029249 | 12.22° C | 59% | 1007.7 hPa | 0 mm | - | - | - |
| 1777029128 | 12.22° C | 56% | 1007.7 hPa | 0 mm | - | - | - |
| 1777028657 | 12.22° C | 57% | 1007.7 hPa | 0 mm | - | - | - |
| 1777028408 | 12.22° C | 57% | 1007.8 hPa | 0 mm | - | - | - |
| 1777028050 | 11.67° C | 57% | 1007.8 hPa | 0 mm | - | - | - |
| 1777027688 | 11.67° C | 58% | 1007.7 hPa | 0 mm | - | - | - |
| 1777027449 | 11.67° C | 58% | 1007.6 hPa | 0 mm | - | - | - |
| 1777026968 | 11.67° C | 59% | 1007.5 hPa | 0 mm | - | - | - |
| 1777026849 | 11.67° C | 59% | 1007.5 hPa | 0 mm | - | - | - |
| 1777026248 | 11.67° C | 59% | 1007.5 hPa | 0 mm | - | - | - |
| 1777025649 | 12.22° C | 58% | 1007.3 hPa | 0 mm | - | - | - |
| 1777025528 | 12.22° C | 58% | 1007.2 hPa | 0 mm | - | - | - |
| 1777025051 | 12.22° C | 57% | 1007.2 hPa | 0 mm | - | - | - |
| 1777024808 | 12.22° C | 57% | 1007.1 hPa | 0 mm | - | - | - |
| 1777024479 | 12.78° C | 55% | 1007.1 hPa | 0 mm | - | - | - |
| 1777024449 | 12.78° C | 55% | 1007.1 hPa | 0 mm | - | - | - |
| 1777024088 | 12.78° C | 53% | 1007.1 hPa | 0 mm | - | - | - |
| 1777023849 | 12.78° C | 52% | 1007.1 hPa | 0 mm | - | - | - |
| 1777023368 | 13.33° C | 50% | 1007.2 hPa | 0 mm | - | - | - |
| 1777023251 | 12.78° C | 53% | 1007.1 hPa | 0 mm | - | - | - |
| 1777022648 | 12.78° C | 53% | 1007.2 hPa | 0 mm | - | - | - |
| 1777022049 | 12.78° C | 52% | 1007.2 hPa | 0 mm | - | - | - |
| 1777021928 | 12.78° C | 51% | 1007.2 hPa | 0 mm | - | - | - |
| 1777021452 | 13.33° C | 50% | 1007.2 hPa | 0 mm | - | - | - |
* Rain latest hour (hover to see other rain measurements)
** Current wind speed in m/s (hover to see current wind gust speed)